• In Uzbekistan
  • List of Countries
  • For 7 days
  • Water Temperature
  • Satellite Maps
  • Weather Map
  • Weather Widgets
  • user-avatar
    Login

    Hourly Weather Rozdollya

    Today, 18 December, Monday

    Time Temperature Precipitation Wind Pressure Humidity
    00:00 +7°C° 0.6 mm 6 mps 745 mmHg 86%
    01:00 +7°C° 0.6 mm 6 mps 745 mmHg 85%
    02:00 +5°C° 0 mm 6 mps 745 mmHg 83%
    03:00 +5°C° 0.5 mm 6 mps 745 mmHg 83%
    04:00 +5°C° 0.5 mm 6 mps 744 mmHg 84%
    05:00 +5°C° 0.5 mm 6 mps 744 mmHg 84%
    06:00 +5°C° 0.8 mm 6 mps 744 mmHg 85%
    07:00 +5°C° 0.8 mm 6 mps 743 mmHg 86%
    08:00 +5°C° 0 mm 7 mps 743 mmHg 87%
    09:00 +5°C° 0.7 mm 7 mps 743 mmHg 86%
    10:00 +5°C° 0.7 mm 8 mps 743 mmHg 86%
    11:00 +5°C° 0.7 mm 8 mps 742 mmHg 85%
    12:00 +5°C° 0.2 mm 8 mps 742 mmHg 85%
    13:00 +6°C° 0.2 mm 7 mps 742 mmHg 85%
    14:00 +6°C° 0.2 mm 7 mps 742 mmHg 84%
    15:00 +6°C° 0.1 mm 7 mps 742 mmHg 83%
    16:00 +6°C° 0.1 mm 7 mps 742 mmHg 82%
    17:00 +6°C° 0.1 mm 7 mps 743 mmHg 81%
    18:00 +5°C° 0 mm 7 mps 743 mmHg 79%
    19:00 +4°C° 0 mm 7 mps 744 mmHg 78%
    20:00 +3°C° 0 mm 7 mps 744 mmHg 76%
    21:00 +3°C° 0 mm 6 mps 745 mmHg 76%
    22:00 +2°C° 0 mm 6 mps 745 mmHg 76%
    23:00 +2°C° 0 mm 6 mps 746 mmHg 76%

    Tomorrow, 19 December, Tuesday

    Time Temperature Precipitation Wind Pressure Humidity
    00:00 +1°C° 0 mm 6 mps 746 mmHg 75%
    01:00 +1°C° 0 mm 6 mps 746 mmHg 75%
    02:00 0°C° 0 mm 5 mps 747 mmHg 75%
    03:00 0°C° 0 mm 5 mps 747 mmHg 75%
    04:00 0°C° 0 mm 5 mps 747 mmHg 75%
    05:00 -1°C° 0 mm 5 mps 748 mmHg 74%
    06:00 -1°C° 0 mm 5 mps 748 mmHg 74%
    07:00 -1°C° 0 mm 5 mps 748 mmHg 73%
    08:00 -1°C° 0 mm 5 mps 749 mmHg 73%
    09:00 -1°C° 0 mm 5 mps 749 mmHg 72%
    10:00 -1°C° 0 mm 5 mps 749 mmHg 70%
    11:00 -1°C° 0 mm 5 mps 750 mmHg 69%
    12:00 0°C° 0 mm 5 mps 750 mmHg 68%
    13:00 0°C° 0 mm 5 mps 750 mmHg 68%
    14:00 0°C° 0 mm 5 mps 750 mmHg 67%
    15:00 -1°C° 0 mm 5 mps 750 mmHg 68%
    16:00 -1°C° 0 mm 4 mps 750 mmHg 70%
    17:00 -1°C° 0 mm 4 mps 751 mmHg 71%
    18:00 -1°C° 0 mm 4 mps 751 mmHg 71%
    19:00 -1°C° 0 mm 4 mps 751 mmHg 71%
    20:00 -1°C° 0 mm 4 mps 751 mmHg 72%
    21:00 -2°C° 0 mm 4 mps 752 mmHg 74%
    22:00 -1°C° 0 mm 3 mps 752 mmHg 76%
    23:00 -1°C° 0 mm 3 mps 752 mmHg 78%

    Day after tomorrow, 20 December, Wednesday

    Time Temperature Precipitation Wind Pressure Humidity
    00:00 -2°C° 0 mm 3 mps 752 mmHg 80%
    01:00 -2°C° 0 mm 3 mps 752 mmHg 81%
    02:00 -2°C° 0 mm 3 mps 753 mmHg 82%
    03:00 -2°C° 0 mm 3 mps 753 mmHg 83%
    04:00 -2°C° 0 mm 3 mps 753 mmHg 83%
    05:00 -4°C° 0 mm 3 mps 753 mmHg 84%
    06:00 -4°C° 0 mm 3 mps 753 mmHg 84%
    07:00 -4°C° 0 mm 3 mps 754 mmHg 84%
    08:00 -3°C° 0 mm 2 mps 754 mmHg 84%
    09:00 -2°C° 0 mm 3 mps 754 mmHg 80%
    10:00 -2°C° 0 mm 3 mps 755 mmHg 75%
    11:00 -1°C° 0 mm 3 mps 755 mmHg 71%
    12:00 -1°C° 0 mm 3 mps 755 mmHg 70%
    13:00 -1°C° 0 mm 3 mps 755 mmHg 69%
    14:00 +1°C° 0 mm 2 mps 755 mmHg 68%
    15:00 -1°C° 0 mm 2 mps 756 mmHg 69%
    16:00 +1°C° 0 mm 1 mps 756 mmHg 71%
    17:00 +1°C° 0 mm 1 mps 756 mmHg 73%
    18:00 0°C° 0 mm 1 mps 757 mmHg 73%
    19:00 0°C° 0 mm 1 mps 757 mmHg 73%
    20:00 0°C° 0 mm 1 mps 757 mmHg 73%
    21:00 0°C° 0 mm 1 mps 757 mmHg 73%
    22:00 0°C° 0 mm 1 mps 758 mmHg 73%
    23:00 0°C° 0 mm 1 mps 758 mmHg 73%

    21 December, Thursday

    Time Temperature Precipitation Wind Pressure Humidity
    00:00 0°C° 0 mm 1 mps 758 mmHg 73%
    01:00 0°C° 0 mm 1 mps 758 mmHg 73%
    02:00 0°C° 0 mm 1 mps 758 mmHg 73%
    03:00 0°C° 0 mm 1 mps 758 mmHg 72%
    04:00 -1°C° 0 mm 1 mps 758 mmHg 72%
    05:00 -1°C° 0 mm 1 mps 758 mmHg 72%
    06:00 -1°C° 0 mm 1 mps 758 mmHg 72%
    07:00 -1°C° 0 mm 1 mps 758 mmHg 71%
    08:00 -1°C° 0 mm 1 mps 759 mmHg 71%
    09:00 0°C° 0 mm 1 mps 758 mmHg 66%
    10:00 -1°C° 0 mm 2 mps 758 mmHg 61%
    11:00 -1°C° 0 mm 2 mps 758 mmHg 57%
    12:00 -1°C° 0 mm 2 mps 758 mmHg 56%
    13:00 -1°C° 0 mm 2 mps 758 mmHg 55%
    14:00 -1°C° 0 mm 2 mps 757 mmHg 55%
    15:00 -1°C° 0 mm 2 mps 757 mmHg 59%
    16:00 -2°C° 0 mm 2 mps 757 mmHg 62%
    17:00 0°C° 0 mm 1 mps 757 mmHg 66%
    18:00 -1°C° 0 mm 1 mps 757 mmHg 68%
    19:00 -3°C° 0 mm 2 mps 756 mmHg 70%
    20:00 -3°C° 0 mm 2 mps 756 mmHg 72%
    21:00 -3°C° 0 mm 2 mps 756 mmHg 72%
    22:00 -3°C° 0 mm 2 mps 756 mmHg 73%
    23:00 -3°C° 0 mm 2 mps 756 mmHg 74%

    22 December, Friday

    Time Temperature Precipitation Wind Pressure Humidity
    00:00 -3°C° 0 mm 2 mps 755 mmHg 74%
    01:00 -3°C° 0 mm 2 mps 755 mmHg 75%
    02:00 -3°C° 0 mm 2 mps 754 mmHg 75%
    03:00 -3°C° 0 mm 2 mps 754 mmHg 76%
    04:00 -3°C° 0 mm 2 mps 753 mmHg 76%
    05:00 -3°C° 0 mm 2 mps 753 mmHg 77%
    06:00 -3°C° 0 mm 2 mps 753 mmHg 77%
    07:00 -3°C° 0 mm 2 mps 752 mmHg 77%
    08:00 -3°C° 0 mm 2 mps 752 mmHg 77%
    09:00 -4°C° 0 mm 3 mps 752 mmHg 73%
    10:00 -2°C° 0 mm 3 mps 752 mmHg 69%
    11:00 -3°C° 0 mm 4 mps 751 mmHg 65%
    12:00 -3°C° 0 mm 4 mps 751 mmHg 65%
    13:00 -3°C° 0 mm 4 mps 750 mmHg 64%
    14:00 -2°C° 0 mm 4 mps 750 mmHg 63%
    15:00 -3°C° 0 mm 4 mps 750 mmHg 67%
    16:00 -3°C° 0 mm 4 mps 749 mmHg 70%
    17:00 -4°C° 0 mm 3 mps 749 mmHg 73%
    18:00 -4°C° 0 mm 4 mps 749 mmHg 73%
    19:00 -4°C° 0 mm 4 mps 748 mmHg 72%
    20:00 -4°C° 0 mm 4 mps 748 mmHg 71%
    21:00 -5°C° 0.1 mm 5 mps 748 mmHg 74%
    22:00 -4°C° 0.1 mm 5 mps 747 mmHg 76%
    23:00 -4°C° 0.1 mm 5 mps 747 mmHg 78%

    23 December, Saturday

    Time Temperature Precipitation Wind Pressure Humidity
    00:00 -4°C° 0 mm 5 mps 746 mmHg 80%
    01:00 -4°C° 0 mm 5 mps 746 mmHg 81%
    02:00 -4°C° 0 mm 5 mps 745 mmHg 83%
    03:00 -4°C° 0.1 mm 5 mps 745 mmHg 83%
    04:00 -4°C° 0.1 mm 5 mps 744 mmHg 84%
    05:00 -4°C° 0.1 mm 5 mps 744 mmHg 84%
    06:00 -4°C° 0.1 mm 5 mps 744 mmHg 85%
    07:00 -4°C° 0.1 mm 5 mps 744 mmHg 85%
    08:00 -4°C° 0.1 mm 5 mps 744 mmHg 86%
    09:00 -4°C° 0.1 mm 5 mps 744 mmHg 85%
    10:00 -4°C° 0.1 mm 5 mps 744 mmHg 84%
    11:00 -2°C° 0.1 mm 5 mps 744 mmHg 82%
    12:00 -2°C° 0.1 mm 5 mps 744 mmHg 82%
    13:00 -2°C° 0.1 mm 5 mps 743 mmHg 82%
    14:00 -2°C° 0.1 mm 4 mps 743 mmHg 81%
    15:00 -2°C° 0 mm 4 mps 743 mmHg 84%
    16:00 -1°C° 0 mm 3 mps 743 mmHg 87%
    17:00 -2°C° 0 mm 2 mps 744 mmHg 89%
    18:00 -2°C° 0.1 mm 2 mps 744 mmHg 89%
    19:00 -2°C° 0.1 mm 2 mps 744 mmHg 89%
    20:00 -2°C° 0.1 mm 2 mps 744 mmHg 89%
    21:00 -3°C° 0 mm 2 mps 744 mmHg 89%
    22:00 -4°C° 0 mm 3 mps 744 mmHg 89%
    23:00 -4°C° 0 mm 3 mps 745 mmHg 89%
    Show more